Doylestown, PA

1:45 AM EDT on October 18, 2017 (GMT -0400)
Doylestown

Weather History for KDYL - July, 2013

Change the Weather History Date:

Monday, July 29, 2013

  Actual Average (KTTN) Record (KTTN)
Temperature  
Mean Temperature 72 °F -  
Max Temperature 81 °F 82 °F 100 °F (1894)
Min Temperature 61 °F 63 °F 54 °F (1992)
Cooling Degree Days 6    
Growing Degree Days 22 (Base 50)    
Moisture  
Dew Point 61 °F    
Average Humidity 80    
Maximum Humidity 100    
Minimum Humidity 38    
Precipitation  
Precipitation 0.03 in - - ()
Sea Level Pressure  
Sea Level Pressure 30.02 in    
Wind  
Wind Speed 2 mph (WNW)    
Max Wind Speed 9 mph    
Max Gust Speed 17 mph    
Visibility 9 miles    
Events Rain    
Averages and records for this station are not official NWS values.
T = Trace of Precipitation, MM = Missing Value Source: NWS Daily Summary

Daily Weather History Graph

Daily Weather History Graph

Search for Another Location

Airport or City:

Trip Planner

Search our weather history database for the weather conditions in past years. The results will help you decide how hot, cold, wet, or windy it might be!

Date:

Astronomy

Jul. 29, 2013 Rise Set
Actual Time 5:55 AM EDT 8:17 PM EDT
Civil Twilight 5:24 AM EDT 8:48 PM EDT
Nautical Twilight 4:46 AM EDT 9:26 PM EDT
Astronomical Twilight 4:04 AM EDT 10:08 PM EDT
Moon No Moon Rise 1:36 PM EDT (7/29)
Length of Visible Light 15h 23m
Length of Day
14h 22m
Waning Gibbous, 51% of the Moon is Illuminated
Jul 29
Waning Gibbous
Jul 29
Last Quarter
Aug 6
New
Aug 14
First Quarter
Aug 20
Full

Hourly Weather History & Observations

Time (EDT) Temp. Heat Index Dew Point Humidity Pressure Visibility Wind Dir Wind Speed Gust Speed Precip Events Conditions
12:54 AM 66.0 °F - 66.0 °F 100% 29.96 in 10.0 mi Calm Calm - 0.00 in   Scattered Clouds
1:54 AM 66.0 °F - 66.0 °F 100% 29.96 in 10.0 mi Calm Calm - 0.01 in   Scattered Clouds
2:01 AM 66.2 °F - 66.2 °F 100% 30.00 in 10.0 mi WNW 4.6 mph - N/A   Mostly Cloudy
2:09 AM 66.2 °F - 66.2 °F 100% 29.99 in 10.0 mi Calm Calm - 0.00 in Rain Light Rain
2:30 AM 66.2 °F - 66.2 °F 100% 29.99 in 10.0 mi North 5.8 mph - 0.00 in   Mostly Cloudy
2:41 AM 66.2 °F - 66.2 °F 100% 29.99 in 10.0 mi North 5.8 mph - 0.01 in Rain Light Rain
2:54 AM 66.0 °F - 66.0 °F 100% 29.98 in 10.0 mi Calm Calm - 0.02 in Rain Light Rain
3:14 AM 66.2 °F - 66.2 °F 100% 29.99 in 10.0 mi Calm Calm - 0.00 in   Overcast
3:54 AM 66.0 °F - 66.0 °F 100% 29.97 in 10.0 mi Calm Calm - 0.00 in   Mostly Cloudy
4:44 AM 64.4 °F - 64.4 °F 100% 29.99 in 3.0 mi Calm Calm - N/A   Partly Cloudy
4:52 AM 64.4 °F - 64.4 °F 100% 29.99 in 2.5 mi Calm Calm - N/A   Partly Cloudy
4:54 AM 64.9 °F - 64.0 °F 97% 29.98 in 2.5 mi Calm Calm - N/A   Partly Cloudy
5:01 AM 64.4 °F - 64.4 °F 100% 29.99 in 6.0 mi Calm Calm - N/A   Partly Cloudy
5:13 AM 64.4 °F - 64.4 °F 100% 29.99 in 2.0 mi Calm Calm - N/A   Mostly Cloudy
5:21 AM 64.4 °F - 64.4 °F 100% 29.99 in 1.5 mi Calm Calm - N/A   Scattered Clouds
5:26 AM 64.4 °F - 64.4 °F 100% 29.99 in 3.0 mi Calm Calm - N/A   Scattered Clouds
5:54 AM 64.0 °F - 64.0 °F 100% 29.99 in 10.0 mi Calm Calm - N/A   Clear
6:54 AM 64.0 °F - 64.0 °F 100% 30.00 in 10.0 mi WNW 4.6 mph - N/A   Clear
7:54 AM 66.9 °F - 62.1 °F 84% 30.02 in 10.0 mi WNW 3.5 mph - N/A   Clear
8:54 AM 71.1 °F - 63.0 °F 75% 30.04 in 10.0 mi NNW 5.8 mph - N/A   Clear
9:54 AM 72.0 °F - 63.0 °F 73% 30.05 in 10.0 mi WNW 8.1 mph - N/A   Clear
10:54 AM 75.9 °F - 62.1 °F 62% 30.05 in 10.0 mi WNW 6.9 mph - N/A   Clear
11:54 AM 77.0 °F - 59.0 °F 54% 30.05 in 10.0 mi Calm Calm - N/A   Clear
12:54 PM 78.1 °F - 57.9 °F 50% 30.04 in 10.0 mi Variable 4.6 mph - N/A   Clear
1:54 PM 79.0 °F - 54.0 °F 42% 30.04 in 10.0 mi West 8.1 mph - N/A   Clear
2:54 PM 80.1 °F - 52.0 °F 38% 30.04 in 10.0 mi Variable 4.6 mph - N/A   Clear
3:54 PM 81.0 °F 80.7 °F 55.0 °F 41% 30.04 in 10.0 mi NW 8.1 mph 17.3 mph N/A   Clear
4:54 PM 80.1 °F 80.0 °F 54.0 °F 40% 30.04 in 10.0 mi West 9.2 mph 17.3 mph N/A   Clear
5:54 PM 79.0 °F - 54.0 °F 42% 30.04 in 10.0 mi WNW 6.9 mph - N/A   Scattered Clouds
6:54 PM 77.0 °F - 54.0 °F 45% 30.06 in 10.0 mi WNW 8.1 mph - N/A   Clear
7:54 PM 73.9 °F - 54.0 °F 50% 30.07 in 10.0 mi West 4.6 mph - N/A   Clear
8:54 PM 70.0 °F - 55.0 °F 59% 30.09 in 10.0 mi Calm Calm - N/A   Clear
9:54 PM 68.0 °F - 55.9 °F 65% 30.11 in 10.0 mi Calm Calm - N/A   Clear
10:54 PM 62.1 °F - 55.9 °F 80% 30.12 in 10.0 mi Calm Calm - N/A   Clear
11:54 PM 61.0 °F - 57.0 °F 87% 30.12 in 10.0 mi Calm Calm - N/A   Clear